This demonstration page uses our WeatherBlox Daily Observations layout. Learn more.

Left ArrowRight Arrow

Hourly Observations for April 17, 2015

Temp ( °F °C ) Dew Point ( °F °C ) Humidity (%) Winds ( mph kmh ) Pressure ( in mb ) Visibility ( mi km ) Precip ( " mm )
12:53 am 00:53 Mostly Clear 58 14.4 52 11.1 81 81 E 13 20 30.05 1018 10 16 0.00 0.00
1:53 am 01:53 Cloudy 56 13.3 53 11.7 90 90 E 10 17 30.05 1018 8 13 0.00 0.00
2:53 am 02:53 Cloudy with Mist and Fog 56 13.3 53 11.7 90 90 E 7 11 30.03 1017 6 10 0.00 0.00
3:53 am 03:53 Cloudy with Light Rain 55 12.8 53 11.7 93 93 E 6 9 30.05 1018 4 6 0.00 0.03
4:53 am 04:53 Cloudy with Mist and Fog 55 12.8 53 11.7 93 93 ENE 7 11 30.05 1018 3 5 0.02 0.51
5:21 am 05:21 Mostly Cloudy with Mist and Fog 54 12.2 53 11.7 97 97 ENE 8 13 30.06 1018 3 4 0.00 0.00
5:45 am 05:45 Mostly Cloudy with Mist and Fog 55 12.8 53 11.7 93 93 WSW 9 15 30.09 1019 3 5 0.00 0.00
5:51 am 05:51 Cloudy with Light Rain 54 12 54 12 100 100 WNW 6 9 30.09 1019 3 4 0.00 0.00
5:53 am 05:53 Cloudy with Light Rain 55 12.8 53 11.7 93 93 WNW 3 6 30.06 1018 3 4 0.00 0.03
5:59 am 05:59 Cloudy with Light Rain 55 12.8 53 11.7 93 93 W 9 15 30.09 1019 3 5 0.00 0.03
6:32 am 06:32 Cloudy with Mist and Fog 55 13 54 12 94 94 NNE 7 11 30.09 1019 3 4 0.00 0.00
6:48 am 06:48 Cloudy with Nearby Thunderstorms 55 13 54 12 94 94 NW 3 6 30.09 1019 3 4 0.00 0.00
6:53 am 06:53 Cloudy with Nearby Thunderstorms 55 12.8 54 12.2 96 96 WNW 3 6 30.08 1019 3 4 0.00 0.03
7:18 am 07:18 Cloudy with Thunderstorms 54 12 54 12 100 100 N 8 13 30.09 1019 2 2 0.00 0.00
7:28 am 07:28 Cloudy with Thunderstorms 54 12 54 12 100 100 N 9 15 30.09 1019 3 4 0.00 0.00
7:35 am 07:35 Cloudy with Nearby Thunderstorms 54 12.2 54 12.2 100 100 N 6 9 30.09 1019 3 4 0.13 3.30
7:46 am 07:46 Cloudy with Nearby Thunderstorms 54 12.2 54 12.2 100 100 E 3 6 30.09 1019 2 3 0.13 3.30
7:53 am 07:53 Cloudy with Nearby Thunderstorms 54 12.2 54 12.2 100 100 E 7 11 30.10 1019 3 4 0.15 3.81
8:09 am 08:09 Cloudy with Light Rain 54 12.2 54 12.2 100 100 NNE 7 11 30.09 1019 2 3 0.00 0.03
8:53 am 08:53 Mostly Cloudy with Light Rain 56 13.3 54 12.2 93 93 NE 14 22 30.06 1018 3 4 0.02 0.51
8:59 am 08:59 Mostly Cloudy with Mist and Fog 56 13.3 54 12.2 93 93 NE 14 22 30.06 1018 3 5 0.00 0.03
9:08 am 09:08 Partly Cloudy with Mist and Fog 55 13 54 12 94 94 NE 14 22 30.06 1018 3 4 0.00 0.00
9:32 am 09:32 Mostly Cloudy with Mist and Fog 55 13 54 12 94 94 ENE 13 20 30.06 1018 3 5 0.00 0.00
9:53 am 09:53 Cloudy with Mist and Fog 57 13.9 54 12.2 90 90 ENE 18 30 30.05 1018 4 6 0.00 0.03
10:53 am 10:53 Mostly Cloudy with Mist and Fog 58 14.4 54 12.2 87 87 ENE 16 26 30.06 1018 5 8 0.00 0.00
11:53 am 11:53 Cloudy with Light Rain 59 15 55 12.8 87 87 E 13 20 30.06 1018 3 5 0.01 0.25
12:53 pm 12:53 Mostly Cloudy with Mist and Fog 61 16.1 57 13.9 87 87 E 10 17 30.04 1017 5 8 0.00 0.03
1:53 pm 13:53 Mostly Cloudy 64 17.8 58 14.4 81 81 E 8 13 30.02 1017 8 13 0.00 0.00
2:15 pm 14:15 Mostly Cloudy 66 18.9 58 14.4 75 75 SE 9 15 29.97 1015 10 16 0.00 0.00
2:53 pm 14:53 Cloudy 66 18.9 57 13.9 73 73 E 12 19 30.00 1016 10 16 0.00 0.00
3:16 pm 15:16 Cloudy 66 18.9 56 13.3 70 70 ESE 12 19 29.94 1014 10 16 0.00 0.00
3:32 pm 15:32 Mostly Cloudy with Nearby Thunderstorms 66 19 55 13 68 68 ESE 10 17 29.94 1014 10 16 0.00 0.00
3:41 pm 15:41 Mostly Cloudy 67 19.4 56 13.3 68 68 E 15 24 29.94 1014 10 16 0.00 0.00
3:49 pm 15:49 Mostly Cloudy 66 19 55 13 68 68 ESE 15 24 29.94 1014 10 16 0.00 0.00
3:53 pm 15:53 Mostly Cloudy 67 19.4 55 12.8 66 66 ESE 14 22 29.97 1015 10 16 0.00 0.00
4:53 pm 16:53 Cloudy 67 19.4 55 12.8 66 66 ESE 13 20 29.96 1015 10 16 0.00 0.00
5:53 pm 17:53 Mostly Cloudy 68 20 55 12.8 63 63 E 13 20 29.96 1015 10 16 0.00 0.00
6:53 pm 18:53 Sunny 67 19.4 54 12.2 63 63 ESE 14 22 29.96 1015 10 16 0.00 0.00
7:53 pm 19:53 Sunny 64 17.8 53 11.7 68 68 E 9 15 29.96 1015 10 16 0.00 0.00
8:53 pm 20:53 Clear 61 16.1 53 11.7 75 75 E 8 13 29.96 1015 10 16 0.00 0.00
9:53 pm 21:53 Clear 60 15.6 53 11.7 78 78 E 7 11 29.97 1015 10 16 0.00 0.00
10:53 pm 22:53 Clear 57 13.9 53 11.7 87 87 E 6 9 29.97 1015 10 16 0.00 0.00
11:53 pm 23:53 Clear 55 12.8 52 11.1 90 90 ENE 6 9 29.96 1015 10 16 0.00 0.00

Powered by AerisWeather